| time (UTC) | temp C | wind direction | speed KPH | gust KPH | rain 1hr cm | rain 24hr cm | rain mn cm | humidity % | barometer mb |
| 20260506043555 | 4 | 117 | 3.2 | 3.2 | 0.00 | 0.00 | 0.00 | 53 | 1013.7 |
| 20260506043053 | 4 | 175 | 0.0 | 0.0 | 0.00 | 0.00 | 0.00 | 54 | 1013.5 |
| 20260506042552 | 4 | 179 | 3.2 | 4.8 | 0.00 | 0.00 | 0.00 | 54 | 1013.6 |
| 20260506042049 | 4 | 183 | 1.6 | 3.2 | 0.00 | 0.00 | 0.00 | 53 | 1013.6 |
| 20260506041548 | 4 | 214 | 0.0 | 3.2 | 0.00 | 0.00 | 0.00 | 54 | 1013.6 |
| 20260506041044 | 5 | 273 | 3.2 | 4.8 | 0.00 | 0.00 | 0.00 | 53 | 1013.7 |
| 20260506040542 | 5 | 175 | 0.0 | 3.2 | 0.00 | 0.00 | 0.00 | 51 | 1013.6 |
| 20260506040038 | 5 | 327 | 4.8 | 4.8 | 0.00 | 0.00 | 0.00 | 51 | 1013.7 |
| 20260506035535 | 5 | 178 | 3.2 | 4.8 | 0.00 | 0.00 | 0.00 | 51 | 1013.8 |
| 20260506035032 | 5 | 307 | 6.4 | 8.0 | 0.00 | 0.00 | 0.00 | 51 | 1013.7 |
| 20260506034529 | 5 | 160 | 1.6 | 3.2 | 0.00 | 0.00 | 0.00 | 51 | 1013.4 |
| 20260506034026 | 5 | 160 | 3.2 | 3.2 | 0.00 | 0.00 | 0.00 | 50 | 1013.7 |
| 20260506033523 | 5 | 156 | 0.0 | 3.2 | 0.00 | 0.00 | 0.00 | 51 | 1013.4 |
| 20260506033021 | 5 | 25 | 3.2 | 4.8 | 0.00 | 0.00 | 0.00 | 50 | 1013.6 |
| 20260506032518 | 5 | 180 | 0.0 | 0.0 | 0.00 | 0.00 | 0.00 | 50 | 1013.4 |
| 20260506032014 | 6 | 143 | 6.4 | 8.0 | 0.00 | 0.00 | 0.00 | 50 | 1013.3 |
| 20260506031512 | 6 | 298 | 3.2 | 4.8 | 0.00 | 0.00 | 0.00 | 50 | 1013.4 |
| 20260506031009 | 6 | 168 | 3.2 | 4.8 | 0.00 | 0.00 | 0.00 | 50 | 1013.5 |
| 20260506030507 | 6 | 244 | 3.2 | 4.8 | 0.00 | 0.00 | 0.00 | 50 | 1013.5 |
| 20260506030004 | 6 | 134 | 0.0 | 3.2 | 0.00 | 0.00 | 0.00 | 50 | 1013.2 |
| 20260506025500 | 6 | 15 | 3.2 | 4.8 | 0.00 | 0.00 | 0.00 | 50 | 1013.2 |
| 20260506024957 | 6 | 347 | 6.4 | 11.3 | 0.00 | 0.00 | 0.00 | 50 | 1012.9 |
| 20260506024454 | 6 | 173 | 0.0 | 0.0 | 0.00 | 0.00 | 0.00 | 50 | 1012.8 |
| 20260506023949 | 6 | 205 | 1.6 | 3.2 | 0.00 | 0.00 | 0.00 | 49 | 1012.7 |
| 20260506023447 | 6 | 151 | 1.6 | 3.2 | 0.00 | 0.00 | 0.00 | 49 | 1012.7 |
| 20260506022943 | 6 | 194 | 1.6 | 3.2 | 0.00 | 0.00 | 0.00 | 48 | 1012.4 |
| 20260506022441 | 6 | 211 | 0.0 | 3.2 | 0.00 | 0.00 | 0.00 | 48 | 1012.4 |
| 20260506021939 | 6 | 210 | 0.0 | 0.0 | 0.00 | 0.00 | 0.00 | 47 | 1012.5 |
| 20260506021436 | 6 | 192 | 4.8 | 8.0 | 0.00 | 0.00 | 0.00 | 46 | 1012.4 |
| 20260506020933 | 6 | 234 | 3.2 | 4.8 | 0.00 | 0.00 | 0.00 | 46 | 1012.2 |
| 20260506020431 | 7 | 138 | 0.0 | 0.0 | 0.00 | 0.00 | 0.00 | 46 | 1012.2 |
| 20260506015927 | 7 | 191 | 3.2 | 4.8 | 0.00 | 0.00 | 0.00 | 45 | 1012.1 |
| 20260506015425 | 7 | 273 | 4.8 | 4.8 | 0.00 | 0.00 | 0.00 | 45 | 1012.0 |
| 20260506014922 | 7 | 280 | 4.8 | 4.8 | 0.00 | 0.00 | 0.00 | 45 | 1012.0 |
| 20260506014419 | 7 | 264 | 3.2 | 3.2 | 0.00 | 0.00 | 0.00 | 44 | 1012.1 |
| 20260506013915 | 7 | 274 | 8.0 | 11.3 | 0.00 | 0.00 | 0.00 | 45 | 1012.1 |
| 20260506013414 | 7 | 264 | 1.6 | 3.2 | 0.00 | 0.00 | 0.00 | 44 | 1011.7 |
| 20260506012909 | 7 | 347 | 4.8 | 8.0 | 0.00 | 0.00 | 0.00 | 44 | 1011.7 |
| 20260506012406 | 7 | 87 | 6.4 | 8.0 | 0.00 | 0.00 | 0.00 | 44 | 1011.6 |
| 20260506011903 | 7 | 184 | 0.0 | 3.2 | 0.00 | 0.00 | 0.00 | 44 | 1011.7 |
| 20260506011400 | 8 | 185 | 3.2 | 3.2 | 0.00 | 0.00 | 0.00 | 43 | 1011.6 |
| 20260506010857 | 8 | 235 | 9.7 | 14.5 | 0.00 | 0.00 | 0.00 | 43 | 1011.5 |
| 20260506010355 | 8 | 292 | 9.7 | 16.1 | 0.00 | 0.00 | 0.00 | 43 | 1011.4 |
| 20260506005852 | 8 | 300 | 3.2 | 4.8 | 0.00 | 0.00 | 0.00 | 43 | 1011.5 |
| 20260506005349 | 8 | 214 | 3.2 | 8.0 | 0.00 | 0.00 | 0.00 | 43 | 1011.4 |
| 20260506004844 | 8 | 182 | 1.6 | 3.2 | 0.00 | 0.00 | 0.00 | 42 | 1011.3 |
| 20260506004343 | 8 | 166 | 6.4 | 8.0 | 0.00 | 0.00 | 0.00 | 40 | 1011.4 |
| 20260506003839 | 9 | 9 | 9.7 | 14.5 | 0.00 | 0.00 | 0.00 | 40 | 1011.5 |
| 20260506003335 | 9 | 274 | 1.6 | 4.8 | 0.00 | 0.00 | 0.00 | 40 | 1011.0 |
| 20260506002831 | 9 | 301 | 6.4 | 8.0 | 0.00 | 0.00 | 0.00 | 40 | 1011.2 |
| 20260506002328 | 9 | 337 | 4.8 | 8.0 | 0.00 | 0.00 | 0.00 | 40 | 1011.2 |
| 20260506001823 | 9 | 323 | 11.3 | 22.5 | 0.00 | 0.00 | 0.00 | 39 | 1011.1 |
| 20260506001321 | 9 | 13 | 4.8 | 4.8 | 0.00 | 0.00 | 0.00 | 40 | 1011.0 |
| 20260506000818 | 9 | 144 | 6.4 | 11.3 | 0.00 | 0.00 | 0.00 | 40 | 1010.8 |
| 20260506000316 | 9 | 291 | 4.8 | 4.8 | 0.00 | 0.00 | 0.00 | 39 | 1010.8 |
| 20260505235812 | 9 | 173 | 3.2 | 4.8 | 0.00 | 0.00 | 0.00 | 39 | 1010.8 |
| 20260505235310 | 9 | 289 | 8.0 | 11.3 | 0.00 | 0.00 | 0.00 | 39 | 1011.0 |
| 20260505234806 | 9 | 215 | 3.2 | 3.2 | 0.00 | 0.00 | 0.00 | 40 | 1010.8 |
| 20260505234304 | 9 | 7 | 6.4 | 8.0 | 0.00 | 0.00 | 0.00 | 39 | 1010.9 |
| 20260505233801 | 9 | 320 | 4.8 | 4.8 | 0.00 | 0.00 | 0.00 | 40 | 1010.7 |
| 20260505233259 | 9 | 335 | 8.0 | 14.5 | 0.00 | 0.00 | 0.00 | 39 | 1010.7 |
| 20260505232755 | 9 | 359 | 8.0 | 8.0 | 0.00 | 0.00 | 0.00 | 40 | 1010.8 |
| 20260505232253 | 9 | 177 | 0.0 | 3.2 | 0.00 | 0.00 | 0.00 | 40 | 1010.8 |
| 20260505231749 | 9 | 247 | 1.6 | 3.2 | 0.00 | 0.00 | 0.00 | 41 | 1010.8 |
| 20260505231248 | 9 | 272 | 3.2 | 8.0 | 0.00 | 0.00 | 0.00 | 40 | 1010.9 |
| 20260505230746 | 10 | 166 | 3.2 | 4.8 | 0.00 | 0.00 | 0.00 | 39 | 1010.8 |
| 20260505230242 | 10 | 242 | 3.2 | 3.2 | 0.00 | 0.00 | 0.00 | 39 | 1010.8 |
| 20260505225739 | 10 | 359 | 4.8 | 4.8 | 0.00 | 0.00 | 0.00 | 39 | 1010.9 |
| 20260505225236 | 10 | 204 | 4.8 | 8.0 | 0.00 | 0.00 | 0.00 | 39 | 1010.7 |
| 20260505224731 | 11 | 337 | 6.4 | 8.0 | 0.00 | 0.00 | 0.00 | 36 | 1010.7 |
| 20260505224229 | 11 | 349 | 6.4 | 11.3 | 0.00 | 0.00 | 0.00 | 37 | 1010.7 |
| 20260505223727 | 11 | 182 | 8.0 | 14.5 | 0.00 | 0.00 | 0.00 | 37 | 1010.8 |
| 20260505223223 | 11 | 192 | 6.4 | 8.0 | 0.00 | 0.00 | 0.00 | 39 | 1010.7 |
| 20260505222719 | 10 | 217 | 4.8 | 4.8 | 0.00 | 0.00 | 0.00 | 39 | 1010.7 |
| 20260505222215 | 10 | 168 | 6.4 | 11.3 | 0.00 | 0.00 | 0.00 | 39 | 1010.7 |
| 20260505221713 | 10 | 137 | 4.8 | 4.8 | 0.00 | 0.00 | 0.00 | 39 | 1010.7 |
| 20260505221209 | 10 | 322 | 4.8 | 8.0 | 0.00 | 0.00 | 0.00 | 39 | 1010.8 |
| 20260505220706 | 10 | 9 | 6.4 | 8.0 | 0.00 | 0.00 | 0.00 | 40 | 1010.8 |
| 20260505220204 | 10 | 257 | 8.0 | 14.5 | 0.00 | 0.00 | 0.00 | 39 | 1010.8 |
| 20260505215701 | 10 | 37 | 12.9 | 16.1 | 0.00 | 0.00 | 0.00 | 39 | 1011.0 |
| 20260505215159 | 10 | 310 | 6.4 | 8.0 | 0.00 | 0.00 | 0.00 | 40 | 1010.9 |
| 20260505214657 | 10 | 221 | 1.6 | 3.2 | 0.00 | 0.00 | 0.00 | 39 | 1010.7 |
| 20260505214154 | 10 | 57 | 6.4 | 8.0 | 0.00 | 0.00 | 0.00 | 39 | 1011.0 |
| 20260505213651 | 10 | 329 | 16.1 | 24.1 | 0.00 | 0.00 | 0.00 | 38 | 1010.8 |
| 20260505213148 | 10 | 0 | 8.0 | 11.3 | 0.00 | 0.00 | 0.00 | 38 | 1010.9 |
| 20260505212644 | 10 | 217 | 9.7 | 11.3 | 0.00 | 0.00 | 0.00 | 39 | 1010.7 |
| 20260505212142 | 10 | 72 | 4.8 | 4.8 | 0.00 | 0.00 | 0.00 | 38 | 1010.8 |
| 20260505211638 | 10 | 0 | 6.4 | 8.0 | 0.00 | 0.00 | 0.00 | 38 | 1010.8 |
| 20260505211136 | 10 | 172 | 0.0 | 3.2 | 0.00 | 0.00 | 0.00 | 41 | 1010.7 |
| 20260505210632 | 10 | 328 | 3.2 | 4.8 | 0.00 | 0.00 | 0.00 | 38 | 1010.9 |
| 20260505210129 | 10 | 187 | 3.2 | 4.8 | 0.00 | 0.00 | 0.00 | 38 | 1010.9 |
| 20260505205626 | 10 | 198 | 3.2 | 3.2 | 0.00 | 0.00 | 0.00 | 39 | 1010.9 |
| 20260505205125 | 10 | 154 | 3.2 | 3.2 | 0.00 | 0.00 | 0.00 | 38 | 1011.0 |
| 20260505204621 | 10 | 358 | 3.2 | 4.8 | 0.00 | 0.00 | 0.00 | 40 | 1011.1 |
| 20260505204119 | 10 | 322 | 3.2 | 4.8 | 0.00 | 0.00 | 0.00 | 40 | 1010.9 |
| 20260505203615 | 10 | 354 | 8.0 | 11.3 | 0.00 | 0.00 | 0.00 | 39 | 1011.0 |
| 20260505203113 | 10 | 12 | 8.0 | 8.0 | 0.00 | 0.00 | 0.00 | 39 | 1011.0 |
| 20260505202608 | 10 | 356 | 3.2 | 11.3 | 0.00 | 0.00 | 0.00 | 38 | 1011.0 |
| 20260505202104 | 11 | 283 | 11.3 | 16.1 | 0.00 | 0.00 | 0.00 | 37 | 1011.1 |
| 20260505201601 | 10 | 333 | 6.4 | 14.5 | 0.00 | 0.00 | 0.00 | 38 | 1011.1 |
| 20260505201059 | 10 | 220 | 3.2 | 4.8 | 0.00 | 0.00 | 0.00 | 39 | 1011.2 |
| 20260505200557 | 10 | 335 | 4.8 | 8.0 | 0.00 | 0.00 | 0.00 | 39 | 1011.3 |
| 20260505200053 | 11 | 262 | 6.4 | 8.0 | 0.00 | 0.00 | 0.00 | 38 | 1011.0 |
| 20260505195549 | 11 | 250 | 3.2 | 4.8 | 0.00 | 0.00 | 0.00 | 38 | 1011.1 |
| 20260505195047 | 11 | 112 | 3.2 | 3.2 | 0.00 | 0.00 | 0.00 | 41 | 1011.1 |
| 20260505194544 | 10 | 265 | 6.4 | 8.0 | 0.00 | 0.00 | 0.00 | 39 | 1011.2 |
| 20260505194039 | 10 | 158 | 3.2 | 4.8 | 0.00 | 0.00 | 0.00 | 39 | 1011.0 |
| 20260505193537 | 11 | 230 | 8.0 | 14.5 | 0.00 | 0.00 | 0.00 | 38 | 1011.1 |
| 20260505193034 | 11 | 7 | 11.3 | 14.5 | 0.00 | 0.00 | 0.00 | 37 | 1010.7 |
| 20260505192532 | 11 | 194 | 4.8 | 8.0 | 0.00 | 0.00 | 0.00 | 37 | 1011.0 |
| 20260505192030 | 12 | 188 | 3.2 | 4.8 | 0.00 | 0.00 | 0.00 | 37 | 1011.0 |
| 20260505191528 | 11 | 40 | 11.3 | 16.1 | 0.00 | 0.00 | 0.00 | 37 | 1011.1 |
| 20260505191026 | 11 | 240 | 4.8 | 8.0 | 0.00 | 0.00 | 0.00 | 36 | 1011.1 |
| 20260505190520 | 11 | 275 | 16.1 | 22.5 | 0.00 | 0.00 | 0.00 | 36 | 1011.0 |
| 20260505190016 | 11 | 295 | 6.4 | 14.5 | 0.00 | 0.00 | 0.00 | 37 | 1011.0 |
| 20260505185513 | 11 | 258 | 9.7 | 16.1 | 0.00 | 0.00 | 0.00 | 37 | 1011.1 |
| 20260505185009 | 11 | 282 | 4.8 | 4.8 | 0.00 | 0.00 | 0.00 | 38 | 1011.2 |
| 20260505184507 | 10 | 252 | 4.8 | 4.8 | 0.00 | 0.00 | 0.00 | 40 | 1011.1 |
| 20260505184003 | 10 | 334 | 4.8 | 8.0 | 0.00 | 0.00 | 0.00 | 39 | 1011.1 |
| 20260505183500 | 10 | 137 | 6.4 | 8.0 | 0.00 | 0.00 | 0.00 | 39 | 1011.0 |
| 20260505182956 | 10 | 199 | 3.2 | 4.8 | 0.00 | 0.00 | 0.00 | 39 | 1011.0 |
| 20260505182454 | 10 | 146 | 0.0 | 3.2 | 0.00 | 0.00 | 0.00 | 39 | 1011.0 |
| 20260505181950 | 10 | 299 | 3.2 | 4.8 | 0.00 | 0.00 | 0.00 | 40 | 1011.1 |
| 20260505181447 | 10 | 137 | 3.2 | 4.8 | 0.00 | 0.00 | 0.00 | 39 | 1011.1 |
| 20260505180944 | 10 | 114 | 9.7 | 14.5 | 0.00 | 0.00 | 0.00 | 38 | 1011.1 |
| 20260505180440 | 10 | 10 | 12.9 | 16.1 | 0.00 | 0.00 | 0.00 | 38 | 1011.0 |
| 20260505175937 | 10 | 188 | 3.2 | 3.2 | 0.00 | 0.00 | 0.00 | 38 | 1011.2 |
| 20260505175433 | 10 | 1 | 4.8 | 8.0 | 0.00 | 0.00 | 0.00 | 38 | 1011.2 |
| 20260505174930 | 10 | 333 | 11.3 | 14.5 | 0.00 | 0.00 | 0.00 | 36 | 1011.2 |
| 20260505174427 | 10 | 359 | 4.8 | 4.8 | 0.00 | 0.00 | 0.00 | 38 | 1011.3 |
| 20260505173923 | 10 | 189 | 4.8 | 11.3 | 0.00 | 0.00 | 0.00 | 37 | 1011.1 |
| 20260505173420 | 10 | 158 | 3.2 | 8.0 | 0.00 | 0.00 | 0.00 | 39 | 1011.0 |
| 20260505172917 | 10 | 13 | 4.8 | 4.8 | 0.00 | 0.00 | 0.00 | 39 | 1011.2 |
| 20260505172415 | 9 | 205 | 3.2 | 4.8 | 0.00 | 0.00 | 0.00 | 42 | 1011.3 |
| 20260505171914 | 10 | 7 | 3.2 | 4.8 | 0.00 | 0.00 | 0.00 | 38 | 1011.3 |
| 20260505171411 | 10 | 92 | 6.4 | 11.3 | 0.00 | 0.00 | 0.00 | 39 | 1011.2 |
| 20260505170908 | 10 | 206 | 1.6 | 4.8 | 0.00 | 0.00 | 0.00 | 39 | 1011.4 |
| 20260505170405 | 9 | 350 | 8.0 | 11.3 | 0.00 | 0.00 | 0.00 | 40 | 1011.2 |
| 20260505165900 | 8 | 193 | 3.2 | 3.2 | 0.00 | 0.00 | 0.00 | 40 | 1011.3 |
| 20260505165356 | 9 | 187 | 6.4 | 8.0 | 0.00 | 0.00 | 0.00 | 39 | 1011.3 |
| 20260505164852 | 10 | 311 | 14.5 | 19.3 | 0.00 | 0.00 | 0.00 | 36 | 1011.4 |
| 20260505164348 | 10 | 196 | 6.4 | 8.0 | 0.00 | 0.00 | 0.00 | 36 | 1011.3 |
| 20260505163847 | 10 | 196 | 3.2 | 3.2 | 0.00 | 0.00 | 0.00 | 37 | 1011.5 |
| 20260505163346 | 10 | 191 | 4.8 | 8.0 | 0.00 | 0.00 | 0.00 | 39 | 1011.2 |
| 20260505162844 | 10 | 173 | 1.6 | 3.2 | 0.00 | 0.00 | 0.00 | 39 | 1011.3 |
| 20260505162339 | 10 | 263 | 4.8 | 14.5 | 0.00 | 0.00 | 0.00 | 37 | 1011.3 |
| 20260505161837 | 8 | 289 | 6.4 | 8.0 | 0.00 | 0.00 | 0.00 | 39 | 1011.4 |
| 20260505161333 | 8 | 271 | 9.7 | 14.5 | 0.00 | 0.00 | 0.00 | 40 | 1011.1 |
| 20260505160831 | 9 | 225 | 3.2 | 4.8 | 0.00 | 0.00 | 0.00 | 37 | 1011.2 |
| 20260505160329 | 9 | 69 | 4.8 | 8.0 | 0.00 | 0.00 | 0.00 | 38 | 1011.2 |
| 20260505153308 | 8 | 46 | 9.7 | 14.5 | 0.00 | 0.00 | 0.00 | 40 | 1011.2 |
| 20260505152805 | 8 | 27 | 4.8 | 4.8 | 0.00 | 0.00 | 0.00 | 40 | 1011.4 |
| 20260505152304 | 8 | 91 | 3.2 | 4.8 | 0.00 | 0.00 | 0.00 | 40 | 1011.4 |
| 20260505151755 | 9 | 331 | 4.8 | 8.0 | 0.00 | 0.00 | 0.00 | 40 | 1011.1 |
| 20260505151253 | 8 | 210 | 8.0 | 11.3 | 0.00 | 0.00 | 0.00 | 42 | 1011.2 |
| 20260505150750 | 8 | 347 | 8.0 | 11.3 | 0.00 | 0.00 | 0.00 | 40 | 1011.3 |
| 20260505150247 | 8 | 234 | 3.2 | 4.8 | 0.00 | 0.00 | 0.00 | 45 | 1011.2 |
| 20260505140212 | 6 | 20 | 4.8 | 8.0 | 0.00 | 0.00 | 0.00 | 44 | 1010.7 |
| 20260505130136 | 4 | 247 | 3.2 | 3.2 | 0.00 | 0.00 | 0.00 | 47 | 1010.4 |
| 20260505124625 | 4 | 179 | 3.2 | 4.8 | 0.00 | 0.00 | 0.00 | 49 | 1010.1 |
| 20260505124121 | 4 | 14 | 8.0 | 14.5 | 0.00 | 0.00 | 0.00 | 49 | 1010.0 |
| 20260505123617 | 4 | 166 | 8.0 | 11.3 | 0.00 | 0.00 | 0.00 | 51 | 1010.1 |
| 20260505123114 | 4 | 60 | 6.4 | 8.0 | 0.00 | 0.00 | 0.00 | 52 | 1009.9 |
| 20260505122611 | 4 | 14 | 12.9 | 19.3 | 0.00 | 0.00 | 0.00 | 51 | 1009.8 |
| 20260505122108 | 3 | 48 | 9.7 | 16.1 | 0.00 | 0.00 | 0.00 | 54 | 1009.7 |
| 20260505121604 | 3 | 163 | 1.6 | 3.2 | 0.00 | 0.00 | 0.00 | 54 | 1009.6 |
| 20260505121101 | 3 | 17 | 3.2 | 4.8 | 0.00 | 0.00 | 0.00 | 54 | 1009.6 |
| 20260505120557 | 3 | 193 | 1.6 | 3.2 | 0.00 | 0.00 | 0.00 | 56 | 1009.6 |
| 20260505120053 | 3 | 268 | 3.2 | 8.0 | 0.00 | 0.00 | 0.00 | 57 | 1009.4 |
| 20260505115547 | 3 | 185 | 1.6 | 3.2 | 0.00 | 0.00 | 0.00 | 58 | 1009.2 |
| 20260505115045 | 3 | 168 | 1.6 | 4.8 | 0.00 | 0.00 | 0.00 | 58 | 1009.3 |
| 20260505114542 | 3 | 211 | 1.6 | 3.2 | 0.00 | 0.00 | 0.00 | 60 | 1009.0 |
| 20260505114038 | 3 | 291 | 8.0 | 11.3 | 0.00 | 0.00 | 0.00 | 61 | 1008.9 |
| 20260505113535 | 3 | 165 | 0.0 | 0.0 | 0.00 | 0.00 | 0.00 | 61 | 1009.0 |
| 20260505113032 | 3 | 171 | 0.0 | 0.0 | 0.00 | 0.00 | 0.00 | 62 | 1009.0 |
| 20260505112528 | 3 | 200 | 3.2 | 8.0 | 0.00 | 0.00 | 0.00 | 62 | 1008.7 |
| 20260505112027 | 3 | 187 | 0.0 | 0.0 | 0.00 | 0.00 | 0.00 | 63 | 1008.8 |
| 20260505111525 | 3 | 231 | 3.2 | 3.2 | 0.00 | 0.00 | 0.00 | 64 | 1008.6 |
| 20260505111022 | 3 | 182 | 3.2 | 3.2 | 0.00 | 0.00 | 0.00 | 64 | 1008.7 |
| 20260505110519 | 3 | 199 | 3.2 | 3.2 | 0.00 | 0.00 | 0.00 | 64 | 1008.6 |
| 20260505101951 | 3 | 296 | 4.8 | 8.0 | 0.00 | 0.00 | 0.00 | 63 | 1008.5 |
| 20260505101449 | 3 | 321 | 3.2 | 3.2 | 0.00 | 0.00 | 0.00 | 63 | 1008.4 |
| 20260505100945 | 3 | 173 | 0.0 | 0.0 | 0.00 | 0.00 | 0.00 | 63 | 1008.4 |
| 20260505100443 | 3 | 158 | 0.0 | 0.0 | 0.00 | 0.00 | 0.00 | 63 | 1008.3 |
| 20260505095939 | 3 | 188 | 4.8 | 8.0 | 0.00 | 0.00 | 0.00 | 62 | 1008.3 |
| 20260505095436 | 3 | 219 | 0.0 | 0.0 | 0.00 | 0.00 | 0.00 | 62 | 1008.3 |
| 20260505094932 | 3 | 269 | 3.2 | 4.8 | 0.00 | 0.00 | 0.00 | 62 | 1008.2 |
| 20260505094429 | 4 | 157 | 0.0 | 0.0 | 0.00 | 0.00 | 0.00 | 62 | 1008.1 |
| 20260505093925 | 4 | 193 | 1.6 | 3.2 | 0.00 | 0.00 | 0.00 | 61 | 1008.3 |
| 20260505093422 | 4 | 284 | 1.6 | 3.2 | 0.00 | 0.00 | 0.00 | 61 | 1008.2 |
| 20260505092919 | 4 | 194 | 1.6 | 3.2 | 0.00 | 0.00 | 0.00 | 61 | 1008.0 |
| 20260505092417 | 4 | 242 | 1.6 | 3.2 | 0.00 | 0.00 | 0.00 | 60 | 1008.2 |
| 20260505091914 | 4 | 140 | 4.8 | 4.8 | 0.00 | 0.00 | 0.00 | 60 | 1007.9 |
| 20260505091412 | 4 | 325 | 6.4 | 8.0 | 0.00 | 0.00 | 0.00 | 60 | 1008.0 |
| 20260505090909 | 4 | 170 | 0.0 | 0.0 | 0.00 | 0.00 | 0.00 | 60 | 1007.8 |
| 20260505090408 | 4 | 184 | 1.6 | 3.2 | 0.00 | 0.00 | 0.00 | 60 | 1007.9 |
| 20260505085904 | 4 | 223 | 0.0 | 3.2 | 0.00 | 0.00 | 0.00 | 59 | 1007.9 |
| 20260505085402 | 4 | 168 | 3.2 | 4.8 | 0.00 | 0.00 | 0.00 | 58 | 1007.8 |
| 20260505084900 | 4 | 242 | 1.6 | 3.2 | 0.00 | 0.00 | 0.00 | 58 | 1007.8 |
| 20260505084358 | 4 | 164 | 0.0 | 0.0 | 0.00 | 0.00 | 0.00 | 58 | 1007.6 |
| 20260505083856 | 4 | 290 | 4.8 | 8.0 | 0.00 | 0.00 | 0.00 | 58 | 1007.5 |
| 20260505083353 | 5 | 177 | 0.0 | 0.0 | 0.00 | 0.00 | 0.00 | 57 | 1007.6 |
| 20260505082849 | 5 | 320 | 6.4 | 8.0 | 0.00 | 0.00 | 0.00 | 56 | 1007.4 |
| 20260505082345 | 5 | 139 | 3.2 | 4.8 | 0.00 | 0.00 | 0.00 | 56 | 1007.4 |
| 20260505081842 | 5 | 128 | 3.2 | 3.2 | 0.00 | 0.00 | 0.00 | 56 | 1007.4 |
| 20260505081339 | 5 | 173 | 3.2 | 3.2 | 0.00 | 0.00 | 0.00 | 56 | 1007.3 |
| 20260505080836 | 5 | 196 | 1.6 | 3.2 | 0.00 | 0.00 | 0.00 | 56 | 1007.3 |
| 20260505080331 | 5 | 190 | 3.2 | 3.2 | 0.00 | 0.00 | 0.00 | 56 | 1007.0 |
| 20260505075827 | 5 | 166 | 3.2 | 4.8 | 0.00 | 0.00 | 0.00 | 56 | 1007.1 |
| 20260505075324 | 5 | 212 | 3.2 | 4.8 | 0.00 | 0.00 | 0.00 | 56 | 1007.0 |
| 20260505074822 | 5 | 208 | 3.2 | 3.2 | 0.00 | 0.00 | 0.00 | 56 | 1006.9 |
| 20260505074319 | 5 | 198 | 1.6 | 3.2 | 0.00 | 0.00 | 0.00 | 55 | 1007.2 |
| 20260505073816 | 5 | 248 | 3.2 | 8.0 | 0.00 | 0.00 | 0.00 | 54 | 1007.1 |
| 20260505073314 | 5 | 304 | 3.2 | 4.8 | 0.00 | 0.00 | 0.00 | 54 | 1007.2 |
| 20260505072811 | 5 | 233 | 3.2 | 4.8 | 0.00 | 0.00 | 0.00 | 54 | 1007.0 |
| 20260505072307 | 5 | 171 | 1.6 | 3.2 | 0.00 | 0.00 | 0.00 | 55 | 1007.1 |
| 20260505071802 | 5 | 175 | 0.0 | 0.0 | 0.00 | 0.00 | 0.00 | 55 | 1007.2 |
| 20260505071259 | 5 | 226 | 3.2 | 3.2 | 0.00 | 0.00 | 0.00 | 54 | 1007.1 |
| 20260505070757 | 5 | 244 | 1.6 | 3.2 | 0.00 | 0.00 | 0.00 | 54 | 1007.2 |
| 20260505070254 | 5 | 121 | 3.2 | 3.2 | 0.00 | 0.00 | 0.00 | 54 | 1007.2 |
| 20260505065748 | 5 | 175 | 0.0 | 0.0 | 0.00 | 0.00 | 0.00 | 54 | 1007.2 |
| 20260505065246 | 5 | 185 | 3.2 | 4.8 | 0.00 | 0.00 | 0.00 | 54 | 1007.3 |
| 20260505064743 | 5 | 210 | 6.4 | 8.0 | 0.00 | 0.00 | 0.00 | 54 | 1007.3 |
| 20260505064240 | 6 | 176 | 3.2 | 4.8 | 0.00 | 0.00 | 0.00 | 54 | 1007.1 |
| 20260505063738 | 6 | 173 | 0.0 | 0.0 | 0.00 | 0.00 | 0.00 | 55 | 1007.0 |
| 20260505063234 | 6 | 277 | 6.4 | 8.0 | 0.00 | 0.00 | 0.00 | 54 | 1007.1 |
| 20260505062730 | 6 | 245 | 3.2 | 4.8 | 0.00 | 0.00 | 0.00 | 54 | 1007.3 |
| 20260505062228 | 6 | 259 | 0.0 | 3.2 | 0.00 | 0.00 | 0.00 | 55 | 1007.2 |
| 20260505061725 | 6 | 321 | 4.8 | 8.0 | 0.00 | 0.00 | 0.00 | 55 | 1007.2 |
| 20260505061223 | 6 | 194 | 1.6 | 3.2 | 0.00 | 0.00 | 0.00 | 55 | 1007.2 |
| 20260505060720 | 6 | 3 | 3.2 | 4.8 | 0.00 | 0.00 | 0.00 | 55 | 1007.3 |
| 20260505060217 | 6 | 152 | 4.8 | 8.0 | 0.00 | 0.00 | 0.00 | 55 | 1007.3 |
| 20260505055712 | 6 | 89 | 0.0 | 3.2 | 0.00 | 0.00 | 0.00 | 56 | 1007.3 |
| 20260505055209 | 5 | 183 | 0.0 | 0.0 | 0.00 | 0.00 | 0.00 | 57 | 1007.2 |
| 20260505054706 | 5 | 164 | 1.6 | 3.2 | 0.00 | 0.00 | 0.00 | 58 | 1006.9 |
| 20260505054204 | 5 | 170 | 0.0 | 0.0 | 0.00 | 0.00 | 0.00 | 57 | 1007.1 |
| 20260505053702 | 6 | 171 | 0.0 | 0.0 | 0.00 | 0.00 | 0.00 | 56 | 1006.9 |
| 20260505053158 | 6 | 172 | 0.0 | 0.0 | 0.00 | 0.00 | 0.00 | 56 | 1007.0 |
| 20260505052655 | 6 | 243 | 3.2 | 3.2 | 0.00 | 0.00 | 0.00 | 56 | 1007.0 |
| 20260505052152 | 6 | 291 | 3.2 | 4.8 | 0.00 | 0.00 | 0.00 | 56 | 1006.9 |
| 20260505051649 | 6 | 233 | 0.0 | 0.0 | 0.00 | 0.00 | 0.00 | 57 | 1006.8 |
| 20260505051147 | 6 | 178 | 0.0 | 0.0 | 0.00 | 0.00 | 0.00 | 56 | 1006.9 |
| 20260505050645 | 6 | 174 | 0.0 | 0.0 | 0.00 | 0.00 | 0.00 | 55 | 1006.7 |
| 20260505050143 | 6 | 184 | 0.0 | 0.0 | 0.00 | 0.00 | 0.00 | 55 | 1007.0 |